User: anonymous   Login
Location: Unspecified
(0.0000°N, 0.0000°E)
Time: 12:44:39
(UTC+00:00)
Language:

TDF 2 - Orbit

View from above orbital plane
View from above orbital plane
View from above satellite
View from above satellite

Ground track
Ground track

The orbit data is extracted from the following two-line orbital elements,

1 20705U 90063A   18200.43188130 -.00000212  00000-0  00000+0 0  9996
2 20705  14.5858  21.6928 0045002 252.7766 131.5846  0.98611971104769
Epoch (UTC): 19 July 2018 10:21:54
Eccentricity: 0.0045002
inclination: 14.5858°
perigee height: 36066 km
apogee height: 36450 km
right ascension of ascending node: 21.6928°
argument of perigee: 252.7766°
revolutions per day: 0.98611971
mean anomaly at epoch: 131.5846°
orbit number at epoch: 10476

The dashed part of the orbit path shows where the satellite is in the earth's shadow,  

DLR